| time (UTC) | temp F | wind direction | speed MPH | gust MPH | rain 1hr in | rain 24hr in | rain mn in | humidity % | barometer mb |
| 20260904144516 | 65 | 184 | 13.0 | 26.0 | 0.00 | 0.00 | 0.00 | 71 | 1028.2 |
| 20260904143016 | 65 | 181 | 11.0 | 18.0 | 0.00 | 0.00 | 0.00 | 74 | 1028.4 |
| 20260904141516 | 66 | 183 | 10.0 | 18.0 | 0.00 | 0.01 | 0.00 | 72 | 1028.5 |
| 20260904134516 | 66 | 189 | 10.0 | 18.0 | 0.00 | 0.01 | 0.00 | 68 | 1028.2 |
| 20260904133015 | 66 | 183 | 11.0 | 19.0 | 0.00 | 0.01 | 0.00 | 70 | 1028.4 |
| 20260904131516 | 65 | 171 | 10.0 | 18.0 | 0.00 | 0.01 | 0.00 | 73 | 1028.6 |
| 20260904130015 | 66 | 185 | 10.0 | 18.0 | 0.00 | 0.01 | 0.00 | 70 | 1028.6 |
| 20260904124515 | 65 | 166 | 7.0 | 18.0 | 0.00 | 0.01 | 0.00 | 72 | 1028.8 |
| 20260904123015 | 65 | 179 | 8.0 | 12.0 | 0.00 | 0.01 | 0.00 | 71 | 1028.8 |
| 20260904113014 | 64 | 163 | 10.0 | 18.0 | 0.00 | 0.01 | 0.00 | 80 | 1028.9 |
| 20260904111514 | 63 | 148 | 12.0 | 18.0 | 0.00 | 0.01 | 0.00 | 83 | 1028.8 |
| 20260904110016 | 63 | 143 | 13.0 | 19.0 | 0.00 | 0.02 | 0.00 | 84 | 1028.8 |
| 20260904104514 | 64 | 156 | 12.0 | 18.0 | 0.00 | 0.02 | 0.00 | 82 | 1028.8 |
| 20260904103013 | 64 | 162 | 9.0 | 16.0 | 0.00 | 0.02 | 0.00 | 80 | 1028.8 |
| 20260904101514 | 64 | 151 | 10.0 | 18.0 | 0.00 | 0.02 | 0.00 | 80 | 1028.9 |
| 20260904100014 | 63 | 140 | 9.0 | 15.0 | 0.00 | 0.02 | 0.00 | 83 | 1029.0 |
| 20260904093014 | 62 | 137 | 10.0 | 15.0 | 0.00 | 0.02 | 0.00 | 82 | 1028.9 |
| 20260904091514 | 62 | 147 | 9.0 | 16.0 | 0.00 | 0.02 | 0.00 | 82 | 1028.8 |
| 20260904090015 | 62 | 143 | 11.0 | 17.0 | 0.00 | 0.02 | 0.00 | 82 | 1029.0 |
| 20260904084513 | 62 | 143 | 9.0 | 13.0 | 0.00 | 0.02 | 0.00 | 80 | 1028.8 |
| 20260904080019 | 63 | 188 | 3.0 | 6.0 | 0.00 | 0.02 | 0.00 | 72 | 1028.6 |
| 20260904074519 | 64 | 168 | 3.0 | 7.0 | 0.00 | 0.02 | 0.00 | 70 | 1028.5 |
| 20260904073019 | 63 | 158 | 1.0 | 4.0 | 0.00 | 0.02 | 0.00 | 66 | 1028.4 |
| 20260904071518 | 63 | 146 | 2.0 | 4.0 | 0.00 | 0.02 | 0.00 | 72 | 1028.5 |
| 20260904070019 | 62 | 164 | 4.0 | 6.0 | 0.00 | 0.02 | 0.00 | 74 | 1028.4 |
| 20260904064517 | 62 | 163 | 2.0 | 4.0 | 0.00 | 0.02 | 0.00 | 73 | 1028.6 |
| 20260904063018 | 62 | 163 | 2.0 | 5.0 | 0.00 | 0.03 | 0.00 | 72 | 1028.5 |
| 20260904061518 | 62 | 163 | 1.0 | 4.0 | 0.00 | 0.03 | 0.00 | 72 | 1028.5 |
| 20260904060018 | 62 | 162 | 2.0 | 4.0 | 0.00 | 0.03 | 0.00 | 72 | 1028.4 |
| 20260904054518 | 62 | 115 | 2.0 | 3.0 | 0.00 | 0.03 | 0.00 | 69 | 1028.2 |
| 20260904051518 | 62 | 110 | 1.0 | 2.0 | 0.00 | 0.03 | 0.00 | 68 | 1028.5 |
| 20260904050018 | 61 | 110 | 2.0 | 3.0 | 0.00 | 0.03 | 0.00 | 74 | 1028.6 |
| 20260904044517 | 61 | 109 | 3.0 | 4.0 | 0.00 | 0.03 | 0.00 | 71 | 1028.0 |
| 20260904043017 | 60 | 109 | 3.0 | 4.0 | 0.00 | 0.03 | 0.00 | 77 | 1028.2 |
| 20260904041516 | 60 | 110 | 4.0 | 6.0 | 0.00 | 0.04 | 0.00 | 76 | 1028.2 |
| 20260904040019 | 60 | 122 | 3.0 | 4.0 | 0.00 | 0.04 | 0.00 | 75 | 1028.3 |
| 20260904034517 | 62 | 90 | 4.0 | 7.0 | 0.00 | 0.04 | 0.00 | 71 | 1028.2 |
| 20260904033017 | 62 | 32 | 3.0 | 6.0 | 0.00 | 0.04 | 0.00 | 67 | 1027.9 |
| 20260904031516 | 63 | 6 | 2.0 | 4.0 | 0.00 | 0.04 | 0.00 | 68 | 1028.1 |
| 20260904030018 | 63 | 4 | 3.0 | 4.0 | 0.00 | 0.04 | 0.00 | 66 | 1027.7 |
| 20260904024516 | 63 | 1 | 4.0 | 5.0 | 0.00 | 0.04 | 0.00 | 64 | 1027.7 |
| 20260904023016 | 62 | 343 | 2.0 | 5.0 | 0.00 | 0.04 | 0.00 | 70 | 1028.0 |
| 20260904021516 | 63 | 5 | 4.0 | 5.0 | 0.00 | 0.04 | 0.00 | 65 | 1027.9 |
| 20260904020016 | 62 | 1 | 5.0 | 6.0 | 0.00 | 0.04 | 0.00 | 73 | 1028.2 |
| 20260904014516 | 62 | 359 | 5.0 | 8.0 | 0.00 | 0.05 | 0.00 | 71 | 1028.0 |
| 20260904013015 | 62 | 287 | 2.0 | 6.0 | 0.00 | 0.05 | 0.00 | 72 | 1028.1 |
| 20260904011515 | 62 | 1 | 3.0 | 4.0 | 0.00 | 0.05 | 0.00 | 73 | 1028.2 |
| 20260904010016 | 61 | 1 | 5.0 | 8.0 | 0.00 | 0.05 | 0.00 | 73 | 1028.2 |
| 20260904004515 | 61 | 349 | 4.0 | 5.0 | 0.00 | 0.05 | 0.00 | 79 | 1028.2 |
| 20260904003015 | 61 | 244 | 5.0 | 8.0 | 0.00 | 0.05 | 0.00 | 79 | 1028.4 |
| 20260904001514 | 60 | 221 | 5.0 | 7.0 | 0.00 | 0.05 | 0.00 | 85 | 1028.4 |
| 20260904000015 | 60 | 220 | 8.0 | 9.0 | 0.00 | 0.05 | 0.00 | 86 | 1028.7 |
| 20260903234515 | 60 | 220 | 8.0 | 9.0 | 0.00 | 0.05 | 0.00 | 85 | 1028.5 |
| 20260903233014 | 59 | 207 | 5.0 | 7.0 | 0.00 | 0.05 | 0.00 | 85 | 1028.7 |
| 20260903231515 | 60 | 203 | 4.0 | 7.0 | 0.00 | 0.05 | 0.00 | 83 | 1028.7 |
| 20260903230014 | 60 | 244 | 2.0 | 4.0 | 0.00 | 0.05 | 0.00 | 81 | 1029.0 |
| 20260903224515 | 61 | 244 | 4.0 | 6.0 | 0.00 | 0.05 | 0.00 | 79 | 1028.7 |
| 20260903223015 | 60 | 244 | 2.0 | 3.0 | 0.00 | 0.05 | 0.00 | 79 | 1028.7 |
| 20260903221514 | 60 | 244 | 1.0 | 2.0 | 0.00 | 0.05 | 0.00 | 80 | 1028.5 |
| 20260903220015 | 60 | 244 | 2.0 | 4.0 | 0.00 | 0.05 | 0.00 | 82 | 1028.4 |
| 20260903214515 | 60 | 244 | 3.0 | 5.0 | 0.00 | 0.05 | 0.05 | 82 | 1028.3 |
| 20260903213014 | 61 | 243 | 3.0 | 4.0 | 0.00 | 0.05 | 0.05 | 83 | 1028.4 |
| 20260903211514 | 61 | 240 | 5.0 | 6.0 | 0.00 | 0.05 | 0.05 | 83 | 1028.5 |
| 20260903210013 | 61 | 256 | 4.0 | 7.0 | 0.00 | 0.05 | 0.05 | 83 | 1028.5 |
| 20260903203013 | 61 | 244 | 7.0 | 8.0 | 0.00 | 0.05 | 0.05 | 82 | 1028.5 |
| 20260903201519 | 61 | 243 | 4.0 | 5.0 | 0.00 | 0.05 | 0.05 | 83 | 1028.5 |
| 20260903200019 | 60 | 230 | 6.0 | 7.0 | 0.00 | 0.05 | 0.05 | 83 | 1028.4 |
| 20260903194519 | 60 | 227 | 6.0 | 7.0 | 0.00 | 0.05 | 0.05 | 83 | 1028.2 |
| 20260903193019 | 60 | 222 | 5.0 | 6.0 | 0.00 | 0.05 | 0.05 | 83 | 1028.2 |
| 20260903191519 | 60 | 223 | 7.0 | 9.0 | 0.00 | 0.05 | 0.05 | 83 | 1028.2 |
| 20260903190019 | 60 | 230 | 6.0 | 7.0 | 0.00 | 0.05 | 0.05 | 84 | 1028.0 |
| 20260903184518 | 60 | 221 | 7.0 | 8.0 | 0.00 | 0.05 | 0.05 | 81 | 1027.9 |
| 20260903183019 | 60 | 223 | 6.0 | 7.0 | 0.00 | 0.05 | 0.05 | 79 | 1027.8 |
| 20260903181518 | 60 | 224 | 6.0 | 7.0 | 0.00 | 0.05 | 0.05 | 80 | 1027.7 |
| 20260903180019 | 59 | 220 | 6.0 | 8.0 | 0.00 | 0.05 | 0.05 | 85 | 1027.6 |
| 20260903174518 | 59 | 211 | 6.0 | 8.0 | 0.00 | 0.05 | 0.05 | 88 | 1027.6 |
| 20260903173019 | 59 | 194 | 6.0 | 8.0 | 0.00 | 0.05 | 0.05 | 87 | 1027.6 |
| 20260903171517 | 60 | 190 | 6.0 | 9.0 | 0.00 | 0.05 | 0.05 | 86 | 1027.6 |
| 20260903163018 | 61 | 189 | 8.0 | 12.0 | 0.00 | 0.05 | 0.05 | 83 | 1027.6 |
| 20260903161517 | 62 | 196 | 10.0 | 15.0 | 0.00 | 0.05 | 0.05 | 81 | 1027.4 |
| 20260903160018 | 62 | 192 | 10.0 | 14.0 | 0.00 | 0.05 | 0.05 | 82 | 1027.4 |
| 20260903154517 | 62 | 193 | 10.0 | 14.0 | 0.00 | 0.05 | 0.05 | 80 | 1027.1 |
| 20260903153017 | 62 | 188 | 9.0 | 14.0 | 0.00 | 0.05 | 0.05 | 80 | 1027.1 |
| 20260903150017 | 62 | 192 | 11.0 | 20.0 | 0.01 | 0.05 | 0.05 | 78 | 1027.1 |